www.pogodaiklimat.ru

Погода и климат >> Архив погоды >> Россия >> Тува >> Туран


ПОГОДА в Туране

  • Прогноз погоды в Туране
  • Монитор погоды в Туране

АРХИВ ПОГОДЫ в Туране

Время (UTC), дата Ветер
(напр.,м/с)
 
Видим.   Явления Облачность Т
(С)
Тd
(С)
f
(%)
Тe
(С)
Тes
(С)
Комфортность P
(гПа)
Po
(гПа)
Тmin
(С)
Tmax
(С)
R
(мм)
R24
(мм)
S
(см)
21 11.07 СЗ 1 50 км 10/10 600 м
[Cb cap]
+14.1 +11.0 82 +14 +14 1011.3 914.2
00 12.07 В 1 20 км слаб. ливневой дождь 10/10 600 м
[Cb cap]
+13.7 +12.4 92 +14 +14 1012.0 914.8 +13.7 0.5
03 12.07 В 1 20 км в посл. час ливневой дождь 10/10 600 м
[Cb cap]
+15.0 +13.5 91 +15 +15 1011.3 914.6
06 12.07 В 1 10 км слаб. ливневой дождь 10/10 600 м
[Cb cap]
+15.1 +13.6 91 +16 +16 1011.0 914.4
09 12.07 Ю 2 4000 м ливневой дождь 10/10 300 м
[Cb cap]
+15.2 +14.1 93 +15 +15 1010.8 914.2
12 12.07 З 1 50 км {ливн. осадки} 10/10 300 м
[Cb cap]
+15.7 +14.3 91 +16 +16 1010.4 914.0 +15.8 8
15 12.07 ЮЗ 1 20 км в посл. час ливневой дождь 10/10 300 м
[Cb cap]
+14.9 +13.5 91 +15 +15 1010.9 914.2
18 12.07 штиль 0 20 км {ливн. осадки} 8/8 600 м
[Cb cap]
+14.1 +13.3 95 +14 +14 1010.9 914.0
21 12.07 Ю 1 50 км 10/10 600 м
[Cb cap]
+14.0 +13.3 96 +14 +14 1010.0 913.1
00 13.07 ЮВ 1 20 км {ливн. осадки} 10/10 300 м
[Cb cap]
+14.2 +13.5 96 +14 +14 1010.1 913.3 +13.9 5
03 13.07 штиль 0 4000 м дымка 10/10 300 м
[Cb cap]
+16.7 +14.7 88 +17 +17 1008.8 912.9
06 13.07 ЮЗ 1 50 км 8/8 600 м
[Cb cap]
+21.6 +15.5 68 +25 +29 комфорт 1006.0 911.9
09 13.07 В 1 50 км 8/6 600 м
[Cb cap Ci fib]
+22.3 +15.3 65 +26 +30 жарко 1004.3 910.6
12 13.07 ЮВ 2 50 км 8/4 600 м
[Cb cap Ci fib]
+22.4 +16.2 68 +27 +27 душно 1003.9 910.3 +23.4
15 13.07 ЮВ 1 50 км 3/3 1000 м
[Sc]
+16.6 +13.2 80 +17 +17 1006.0 910.3
18 13.07 СВ 1 20 км 9/9 600 м
[Cb cap]
+14.8 +12.6 87 +15 +15 1006.4 910.1
21 13.07 СВ 1 50 км 9/9 600 м
[Cb cap]
+13.4 +12.2 92 +14 +14 1006.5 909.7
00 14.07 штиль 0 50 км 8/4 600 м
[Cb cap Ci sp]
+15.7 +13.0 84 +15 +17 1005.9 909.9 +12.8
03 14.07 ЮЗ 2 50 км 6/6 600 м
[Cb cap]
+19.6 +14.2 71 +22 +27 комфорт 1004.0 909.5
06 14.07 С 4 50 км 8/8 600 м
[Cb cap]
+23.6 +14.3 56 +26 +28 жарко 1001.1 908.0
09 14.07 С 5
{11}
50 км 6/6 600 м
[Cb cap]
+22.7 +13.2 55 +26 +28 жарко 1001.0 907.7
12 14.07 СЗ 4 50 км {ливн. осадки} 9/9 600 м
[Cb cap]
+19.5 +12.1 62 +21 +21 комфорт 1003.2 908.6 +24.2 0.0
15 14.07 ЮЗ 1 50 км 8/8 600 м
[Cb cap]
+16.4 +12.3 77 +17 +17 1004.9 909.2
18 14.07 В 1 20 км 4/4 600 м
[Cb cap]
+12.2 +10.7 91 +12 +12 1006.2 909.0
21 14.07 СВ 1 50 км 6/4 600 м
[Cb cap Ci sp]
+9.9 +8.2 89 +9 +9 1006.9 908.8
00 15.07 штиль 0 50 км 8/8 600 м
[Cb cap]
+10.6 +8.8 89 +10 +10 1006.7 908.9 +9.4
03 15.07 ЮЗ 1 50 км 10/4 600 м
[Cb cap Cs]
+19.6 +9.8 53 +22 +28 комфорт 1002.8 908.2
06 15.07 В 1 50 км 10/5 600 м
[Cb calv Cs]
+22.8 +9.5 43 +24 +32 комфорт 1000.1 906.8
09 15.07 С 4 10 км дым 10/8 600 м
[Cb cap Cs]
+20.9 +10.3 51 +23 +24 комфорт 1000.5 906.6
12 15.07 З 2 10 км дым 8/8 600 м
[Cb cap]
+19.4 +10.9 58 +21 +21 комфорт 1001.6 907.1 +23.5
15 15.07 штиль 0 50 км дым 6/6 600 м
[Cb cap]
+14.5 +10.6 77 +14 +14 1004.4 908.1
18 15.07 СЗ 2 10 км дым 8/8 600 м
[Cb cap]
+13.5 +10.4 82 +13 +13 1004.9 901.3
21 15.07 штиль 0 20 км дым 5/5 600 м
[Cb cap]
+11.5 +9.3 86 +11 +11 1005.6 908.2
00 16.07 штиль 0 20 км дым 10/10 600 м
[Cb cap]
+12.5 +9.9 84 +12 +12 1006.0 908.9 +11.0
03 16.07 В 1 20 км дым 6/6 600 м
[Cb cap]
+18.2 +10.1 59 +20 +25 1003.4 908.3
06 16.07 Ю 2 20 км дым 10/10 600 м
[Cb cap]
+20.6 +12.0 58 +23 +23 комфорт 1001.6 907.5
09 16.07 С 2 20 км дым {ливн. осадки} 8/8 600 м
[Cb cap]
+21.6 +12.6 57 +24 +26 комфорт 1000.9 907.2
12 16.07 З 1 20 км дым {ливн. осадки} 8/5 600 м
[Cb cap Ci sp]
+21.4 +13.1 59 +24 +25 комфорт 1000.5 906.8 +23.4 0.0
15 16.07 штиль 0 20 км дым 8/8 600 м
[Cb cap]
+16.6 +14.0 85 +16 +16 1002.5 907.2
18 16.07 ЮЗ 3
{11}
10 км слаб. ливневой дождь 10/10 600 м
[Cb cap]
+13.1 +11.8 92 +12 +12 1006.9 910.0
21 16.07 З 1 50 км {ливн. осадки} 10/10 600 м
[Cb cap]
+12.5 +11.8 95 +12 +12 1006.7 909.6
00 17.07 штиль 0 50 км {ливн. осадки} 8/8 600 м
[Cb cap]
+13.4 +12.5 94 +13 +13 1007.3 910.5 +12.5 10
03 17.07 З 1 50 км 6/6 600 м
[Cb cap]
+18.5 +12.6 68 +20 +25 1006.2 911.1
06 17.07 З 1 50 км 5/5 600 м
[Cb cap]
+21.7 +11.7 53 +24 +33 комфорт 1004.4 910.4
09 17.07 З 1 50 км 4/4 600 м
[Cb cap]
+24.5 +11.8 45 +26 +33 жарко 1003.0 909.9
12 17.07 ЮЗ 1 50 км в посл. час ливневой дождь 5/5 600 м
[Cb cap]
+22.1 +13.9 60 +25 +26 комфорт 1004.4 910.5 +24.8 0.0
15 17.07 штиль 0 50 км 8/4 1000 м
[Cb cap Ci sp]
+17.0 +12.6 75 +17 +17 1008.0 912.2
18 17.07 штиль 0 20 км 8/8 600 м
[Cb cap]
+14.0 +11.6 85 +14 +14 1009.4 912.5
21 17.07 С 2 50 км 4/4 600 м
[Cb cap]
+12.6 +10.0 84 +12 +12 1010.1 912.7
00 18.07 СЗ 1 50 км ясно +14.5 +10.6 77 +15 +18 1009.3 912.5 +11.4
03 18.07 СВ 1 50 км ясно +21.1 +13.2 61 +23 +37 комфорт 1006.2 911.9
06 18.07 Ю 2 50 км 6/6 600 м
[Cb cap]
+24.0 +14.1 54 +26 +33 жарко 1004.2 911.0
09 18.07 З 1 50 км 8/8 600 м
[Cb cap]
+25.4 +12.9 46 +27 +29 жарко 1001.7 909.0
12 18.07 С 3
{13}
50 км в посл. час ливневой дождь {гроза} 10/10 600 м
[Cb cap]
+19.2 +12.5 65 +21 +21 комфорт 1004.2 909.4 +26.2 0.0
15 18.07 ЮВ 1 50 км 5/5 600 м
[Cb cap]
+15.2 +13.0 87 +16 +16 1006.2 910.0
18 18.07 СЗ 1 20 км 8/8 600 м
[Cb cap]
+13.7 +11.9 89 +14 +14 1006.9 910.2

 

Местоположение метеостанции Туран (Тува, Россия): широта 52.13 долгота 93.92 высота над уровнем моря 862 м.

В архиве по умолчанию представлена погода в Туране за последнюю неделю. Архивные данные за месяц целиком и за предыдущие месяцы, начиная с января 2011 года, Вы можете получить, выбрав интересующий диапазон дат из раскрывающегося списка и нажав кнопку "Ввод!".


*Определитесь, кто Вы:
робот инопланетянин человек

Внимание! Время в таблицах - всемирное. Для получения местного времени необходимо прибавить поправку, которая равна 7 ч.

Смотрите также архив погоды в соседних городах и на ближайших метеорологических станциях:

Погода в Кызыле (Тува, Россия) (61 км)
Погода в Нижнеусинском (Красноярский край, Россия) (63 км)
Погода в Оленьей Речке (Красноярский край, Россия) (88 км)
Погода в Хову-Аксы (Тува, Россия) (113 км)
Погода в Шагонаре (Тува, Россия) (114 км)
Погода в Сосновке (Тува, Россия) (117 км)
Погода в Усть-Усе (Красноярский край, Россия) (118 км)
Погода в Сарыг-Сепе (Тува, Россия) (133 км)
Погода в Тоора-Хем (Тува, Россия) (153 км)
Погода в Ермаковском (Красноярский край, Россия) (165 км)

Пояснения к столбцам:

Ветер - указаны скорость ветра в м/с - средняя за 10 мин, порывы в срок и между сроками (в фигурных скобках) и направление, откуда дует ветер: С - северный, СВ - северо-восточный, В - восточный, ЮВ - юго-восточный, Ю - южный, ЮЗ - юго-западный, З - западный, СЗ - северо-западный.
Видимость - горизонтальная дальность видимости в метрах или километрах. При видимости от 1 до 10 км при отсутствии осадков обычно наблюдается дымка, при ухудшении видимости до 1 км и менее - туман. В сухую погоду видимость может ухудшаться дымом, пылью или мглою.
Явления - указаны атмосферные явления, наблюдавшиеся в срок или в последний час перед сроком; фигурными скобками обозначены явления, наблюдавшиеся между сроками (за 1-3 часа до срока); квадратными скобками обозначены град или гололедные отложения с указанием их диаметра в мм.
Облачность - указаны через наклонную черту общая и нижняя облачность в баллах и высота нижней границы облаков в метрах; квадратными скобками обозначены формы облаков: Ci - перистые, Cs - перисто-слоистые, Cc - перисто-кучевые, Ac - высококучевые, As - высокослоистые, Sc - слоисто-кучевые, Ns - слоисто-дождевые, Cu - кучевые, Cb - кучево-дождевые. Подробнее классификацию облаков см. в Атласе облаков (PDF).
T - Температура воздуха - температура, измеренная на высоте 2 м над землей.
Td - Температура точки росы - температура, при понижении до которой содержащийся в воздухе водяной пар достигнет насыщения.
f - Относительная влажность воздуха - влажноcть воздуха, измеренная на высоте 2 м над землей.
Te - Эффективная температура - температура, которую ощущает одетый по сезону человек в тени. Характеристика душности погоды. При расчете учитывается влияние влажности воздуха и скорости ветра на теплоощущения человека.
Tes - Эффективная температура на солнце - температура, которую ощущает человек, с поправкой на солнечный нагрев. Характеристика знойности погоды. Зависит от высоты солнца над горизонтом, облачности и скорости ветра. Ночью, в пасмурную погоду, а также при ветре 12 м/с и более поправка равна нулю.
P - Атмосферное давление - приведенное к уровню моря атмосферное давление.
Po - Атмосферное давление - измеренное на уровне метеостанции атмосферное давление.
Tmin - Минимальная температура - минимум температуры воздуха на высоте 2 м над землей.
Tmax - Максимальная температура - максимум температуры воздуха на высоте 2 м над землей.
R - Количество осадков - Количество выпавших осадков за период времени, мм. При наведении курсора мыши на число - период времени, за который выпало указанное количество осадков.
R24 - Количество осадков - Количество выпавших осадков за 24 часа, мм.
S - Снежный покров - Высота снежного покрова, см. При наведении курсора мыши на число - состояние снежного покрова и степень покрытия местности в баллах.